Theta_e
307 303 302 304 305 307 307 306 307 307 309 308 306 305 304 306 307 307 306 308 310 310 310 310 311 311 310 310 309 310 310 308 307 307 306 306 306 306 306 307 307 308 309 309
305 306 305 305 306 306 307 308 306 307 308 307 307 306 304 304 304 307 308 307 309 310 311 311 311 311 310 310 310 310 308 307 306 306 306 306 306 307 308 308 309 309 309 309
305 305 307 309 308 309 308 306 306 306 307 306 304 304 305 305 305 306 306 308 308 310 311 311 311 311 311 311 309 307 306 305 305 306 306 306 306 307 308 308 308 309 309 309
305 306 308 309 309 305 309 307 307 308 304 304 302 303 301 304 305 304 305 305 307 310 311 311 312 311 310 307 307 306 305 306 306 306 306 306 307 307 308 308 308 308 309 309
303 308 309 309 308 308 307 307 307 305 300 300 304 301 301 304 306 305 304 305 307 310 312 312 311 307 307 306 305 305 305 304 305 305 305 306 307 307 307 307 308 308 309 309
305 306 308 308 307 307 306 305 303 300 299 300 303 303 302 302 305 305 302 306 310 311 310 308 307 306 305 305 305 305 304 305 305 305 306 306 306 306 306 306 306 307 308 309
304 306 305 308 308 307 304 304 299 299 297 305 300 300 302 300 302 305 303 304 306 307 307 306 305 305 305 305 304 304 304 306 306 306 305 306 306 306 305 305 305 305 306 306
302 299 307 307 307 307 306 304 301 297 300 302 303 303 301 302 302 303 304 305 305 306 306 305 305 304 304 304 304 303 305 306 306 305 305 305 304 304 305 305 305 305 305 305
304 306 306 307 307 307 307 306 303 303 301 300 303 302 302 302 302 302 303 304 305 305 305 305 304 304 304 304 303 304 306 306 305 305 304 303 304 305 304 304 304 304 305 305
304 305 306 307 307 306 306 303 304 303 303 304 302 302 304 303 303 302 302 303 305 305 305 304 304 304 304 303 303 305 306 305 304 304 303 303 304 305 305 305 304 304 305 306
304 304 305 308 307 306 307 307 303 302 300 298 300 303 300 302 302 302 302 304 305 305 304 304 303 304 303 302 304 305 305 305 304 303 303 303 305 305 306 307 305 305 306 306
304 303 305 305 304 304 304 305 303 303 303 299 298 303 301 300 302 303 303 304 304 304 303 303 303 303 302 303 303 305 305 304 302 301 301 302 303 304 306 306 305 306 305 305
304 304 302 304 304 303 305 304 303 302 302 303 301 304 302 302 302 304 303 304 303 303 302 302 302 302 302 302 303 304 304 303 301 301 301 302 303 303 305 305 305 305 305 305
306 302 304 302 304 304 306 304 304 303 302 304 304 303 303 304 302 302 303 303 302 302 301 301 301 301 302 302 303 303 303 302 301 300 301 302 303 304 305 304 304 305 304 305
302 304 302 303 303 304 305 305 304 304 303 304 305 303 303 303 301 302 303 302 301 300 300 299 300 300 301 302 303 304 303 303 301 300 300 302 303 304 304 304 304 304 304 304
303 306 304 304 302 302 303 303 302 303 303 302 302 303 301 305 304 303 302 301 301 300 298 298 299 300 300 301 304 304 303 302 301 300 300 301 302 303 303 303 303 304 303 303
303 304 303 302 301 300 301 300 302 302 302 303 303 303 302 302 302 303 303 301 301 299 297 298 299 300 300 301 303 304 304 302 301 300 300 300 302 303 303 303 303 303 302 302
302 301 302 301 301 302 300 299 300 301 300 296 297 299 300 302 302 302 302 300 297 297 298 299 299 300 300 301 304 304 303 302 300 300 299 300 302 302 302 302 302 302 300 302
300 302 302 301 301 299 300 298 299 300 297 293 294 294 298 298 298 296 296 296 296 296 297 297 298 299 300 300 303 304 304 302 300 300 299 300 301 301 301 302 301 301 300 301
296 300 302 300 301 300 298 296 294 296 297 292 292 293 297 297 296 293 295 294 293 292 292 293 293 295 299 300 301 302 303 301 300 299 299 300 300 300 301 301 301 300 300 300
298 299 300 301 301 298 293 291 293 298 295 291 290 293 295 295 295 295 295 294 293 293 293 293 293 292 295 298 300 301 302 300 300 299 300 300 299 299 300 300 300 300 299 299
297 297 298 300 301 300 289 290 293 289 289 290 289 289 290 291 293 293 293 294 293 293 293 292 293 293 292 294 298 299 302 301 300 299 300 299 299 299 299 300 299 299 299 299
293 294 295 295 295 290 289 288 289 289 289 289 289 289 289 290 290 291 291 291 292 292 292 292 292 293 292 292 293 298 300 301 300 299 300 299 299 299 299 299 299 298 295 294
288 288 288 289 288 289 288 288 288 288 288 288 289 289 289 289 290 290 291 291 291 291 292 292 292 292 292 292 291 293 298 301 300 299 299 298 298 298 299 298 297 293 291 291
287 288 286 286 286 287 287 288 288 288 288 288 289 290 290 290 290 289 290 291 291 291 291 291 292 292 292 291 291 291 298 300 300 299 299 298 298 298 297 296 296 292 291 291
287 286 286 286 287 286 287 288 289 288 288 289 289 289 289 290 290 290 291 290 290 290 291 291 291 291 291 291 291 291 297 299 300 299 298 298 298 297 297 295 294 292 290 290
Wind_Speed
3 5 3 6 5 2 2 2 3 1 0 2 6 6 7 5 8 12 12 16 17 17 15 14 15 13 9 6 4 5 8 11 16 20 23 25 25 24 23 23 22 21 20 20
5 2 1 2 2 3 4 1 5 2 1 2 3 9 8 6 8 18 21 17 19 19 18 19 17 13 9 6 6 7 10 14 18 21 23 25 28 28 27 25 23 20 18 18
4 2 4 1 1 2 2 4 3 4 1 2 4 7 4 3 4 9 17 24 22 25 23 22 18 14 10 8 7 8 11 14 17 20 22 24 24 24 24 22 19 16 15 16
2 3 2 1 1 4 2 1 2 1 3 3 4 4 5 4 5 3 9 19 23 26 24 22 19 14 11 8 7 9 12 14 17 21 23 24 24 23 22 23 22 19 16 17
3 2 3 0 2 1 3 3 4 3 4 4 2 3 7 1 5 6 6 14 25 25 24 21 17 13 9 6 7 9 12 15 19 22 23 22 21 20 22 22 22 20 18 18
4 3 2 1 1 2 6 4 6 4 3 2 4 5 5 5 6 4 5 19 27 27 23 18 14 9 6 5 6 10 14 16 19 21 20 19 20 22 23 23 23 22 22 22
3 2 2 2 2 2 3 5 2 4 3 5 3 0 7 5 4 5 11 23 26 26 23 18 12 8 4 4 7 11 15 17 19 21 21 19 19 22 25 26 27 28 28 25
2 6 4 2 3 5 2 4 5 6 3 4 2 5 5 4 10 6 17 25 24 22 18 14 10 6 4 4 8 12 15 16 19 21 21 21 23 25 25 25 26 27 27 27
3 4 1 1 1 3 3 2 4 5 1 2 3 6 8 3 3 8 18 22 20 17 15 12 8 5 3 6 10 12 14 16 18 21 23 21 19 20 21 20 18 17 17 19
3 2 1 1 1 2 2 5 3 2 2 3 4 4 5 6 3 2 7 16 17 14 11 9 6 5 5 8 10 12 14 16 20 22 20 17 16 16 17 17 16 17 18 19
4 2 3 2 4 7 2 1 3 3 4 4 1 5 6 5 7 7 9 16 15 13 9 7 6 6 7 10 11 13 14 17 20 22 19 15 13 14 16 17 19 21 21 22
4 4 4 8 3 3 3 6 6 4 4 1 3 6 3 7 7 16 16 16 13 10 8 5 6 7 9 9 12 14 15 17 19 22 19 16 14 16 16 17 21 20 22 24
5 2 1 6 3 1 3 4 3 4 3 6 3 5 1 5 5 14 16 14 12 9 6 5 6 7 7 10 11 14 17 18 20 24 15 15 15 16 15 18 19 22 23 20
2 4 5 6 2 3 3 3 2 4 3 4 7 6 7 3 5 8 13 14 11 8 6 5 4 5 6 9 10 14 17 19 21 23 16 14 15 15 16 17 19 21 21 19
3 4 3 4 5 3 4 6 5 7 6 6 3 7 6 6 8 13 15 15 12 9 5 2 3 4 6 8 9 10 13 18 21 22 17 15 16 16 17 17 19 21 21 19
3 1 2 5 6 7 7 8 9 12 9 8 7 14 8 12 9 11 16 17 14 8 4 2 4 5 8 10 10 11 15 17 21 19 19 16 16 15 15 16 18 20 17 14
3 3 2 3 3 5 8 12 15 8 4 4 8 8 5 5 8 21 21 19 14 8 2 2 5 7 8 9 11 12 16 16 19 19 18 16 15 14 14 14 15 18 17 12
4 4 2 2 2 4 3 1 4 6 3 6 7 6 9 6 4 5 11 18 12 6 3 4 6 8 9 10 11 13 15 16 16 19 17 14 13 12 12 13 14 16 15 12
8 3 3 3 3 6 10 3 2 3 2 6 6 8 5 13 19 15 12 12 11 9 6 6 9 11 10 11 11 11 13 15 16 17 16 12 10 9 10 11 13 14 14 12
7 7 3 3 3 4 3 4 9 3 1 10 12 9 5 8 3 2 9 12 12 12 10 9 10 12 12 12 13 12 12 13 15 15 14 10 7 8 9 9 10 12 12 12
4 4 13 7 4 5 4 9 8 3 2 14 17 16 16 4 1 9 8 7 6 9 9 11 13 13 14 14 13 12 12 13 13 14 12 9 7 6 7 7 7 9 9 8
5 6 4 5 4 9 14 5 4 4 5 5 16 20 19 16 3 1 3 2 2 4 8 11 14 17 17 16 16 14 13 12 11 12 10 8 5 4 5 5 5 5 7 8
3 3 2 4 1 3 11 4 3 2 3 8 18 19 17 15 11 6 5 7 7 9 11 11 14 16 19 18 18 17 14 12 9 8 9 5 2 2 3 3 4 6 7 8
2 1 2 1 2 3 14 7 2 9 13 17 17 20 19 19 19 19 19 19 17 15 16 17 19 21 21 20 20 19 15 13 9 6 5 4 3 3 2 3 6 6 7 8
3 1 3 3 7 15 2 18 22 22 23 25 24 20 22 22 25 28 30 30 28 25 24 24 24 24 24 23 22 19 15 13 10 5 4 4 2 2 2 4 6 7 6 8
7 6 3 4 8 11 18 29 30 30 30 27 24 27 27 26 29 29 32 34 35 33 30 30 29 26 26 23 22 19 16 14 12 7 5 4 2 1 4 5 6 7 7 9
Wind_Direction
37 70 211 226 191 126 116 217 274 210 191 222 232 255 270 196 219 217 201 192 187 186 178 176 168 167 174 187 223 280 300 309 312 313 316 316 318 315 312 309 306 300 293 286
25 220 258 263 195 205 220 262 282 294 136 173 331 273 243 215 220 227 219 204 192 187 180 173 172 178 190 213 252 283 298 305 309 313 317 317 316 313 309 309 305 302 297 292
160 177 321 211 208 172 215 188 223 224 37 35 336 295 237 216 229 247 238 230 206 191 181 174 178 184 195 220 248 277 295 308 315 316 316 314 311 308 306 305 302 293 292 296
246 313 352 340 273 129 241 316 259 164 86 235 45 270 288 233 238 242 232 215 205 189 181 178 182 186 198 223 261 292 307 311 314 318 319 320 321 319 314 308 305 297 288 288
267 12 28 256 251 249 229 52 81 64 86 31 319 65 265 302 259 231 206 192 185 182 178 179 181 189 203 236 274 293 310 320 321 324 322 319 317 317 310 308 302 297 289 284
240 270 188 219 45 312 155 79 53 65 86 343 249 166 264 198 212 180 177 175 170 169 170 174 180 189 205 242 285 309 318 323 325 328 326 316 314 312 307 303 301 299 292 283
313 231 270 184 103 39 81 70 351 0 10 227 332 32 260 301 278 212 175 169 164 164 166 172 178 186 212 263 302 316 321 323 326 332 333 324 315 308 303 301 298 297 296 290
139 322 170 167 198 188 168 155 155 203 196 266 72 237 252 250 292 256 175 168 164 163 164 166 171 188 220 286 312 320 318 325 334 331 325 322 318 314 312 307 298 295 294 291
156 286 352 194 199 152 183 187 173 108 115 50 237 288 305 350 343 167 162 167 169 169 169 170 177 202 246 300 316 313 323 333 331 328 324 324 329 328 323 318 317 319 321 317
232 320 311 307 97 21 176 161 71 16 184 261 297 270 246 323 269 152 138 170 173 172 180 182 195 225 276 306 308 322 330 330 330 327 324 322 329 332 334 330 324 321 315 314
140 111 296 27 215 189 142 205 68 117 144 175 275 264 213 263 193 177 175 179 174 177 189 204 232 247 281 296 317 326 326 329 330 329 323 318 321 325 321 318 319 313 312 316
186 150 235 222 287 210 185 198 157 136 225 180 149 272 275 266 201 179 185 181 177 181 188 221 230 253 279 303 317 330 332 332 334 337 329 336 327 323 316 316 316 317 318 315
182 181 6 332 4 325 233 217 173 113 98 188 155 253 354 51 159 190 180 181 180 182 199 219 239 257 291 323 344 350 350 347 343 337 336 334 331 318 315 318 324 328 324 322
134 170 189 197 205 162 223 194 183 156 146 211 232 288 321 328 193 174 183 183 183 192 202 212 241 276 311 333 344 349 352 346 342 341 335 335 328 327 324 329 333 331 331 331
130 213 187 272 264 270 248 242 237 213 213 214 194 224 254 252 209 198 188 187 188 190 201 237 299 311 323 335 334 330 336 342 341 341 335 329 332 328 330 330 332 331 335 332
30 222 182 263 271 241 252 247 246 247 239 249 237 255 225 249 213 198 205 193 191 194 216 281 310 328 336 334 328 324 337 343 341 342 334 328 331 331 331 337 339 343 347 346
149 161 143 258 325 304 277 226 225 239 211 225 235 247 235 230 210 218 217 194 184 185 195 322 331 338 335 330 329 337 340 341 338 336 332 332 335 336 341 344 354 3 1 358
160 147 169 256 336 250 291 289 193 218 355 349 317 303 295 271 233 224 205 164 145 124 84 26 3 343 334 337 336 342 336 337 344 339 335 335 333 337 339 350 7 10 12 16
194 167 187 204 205 313 301 13 62 188 108 360 331 331 352 114 98 72 108 119 114 102 73 35 12 354 340 335 333 331 333 338 346 339 338 337 332 339 346 1 13 20 22 29
182 226 204 154 198 245 251 313 344 294 206 345 358 353 54 1 72 253 116 105 92 83 64 36 14 360 347 339 337 335 327 338 350 341 340 334 329 344 354 16 20 27 31 46
153 192 226 213 220 280 328 317 324 173 271 344 24 21 35 43 77 135 139 123 88 58 35 19 11 0 352 347 338 338 325 334 349 339 333 323 327 350 357 19 34 30 33 41
177 176 200 212 234 249 0 36 50 276 318 27 13 9 8 10 343 130 138 120 43 4 353 356 360 356 352 345 340 336 323 325 343 339 333 318 324 350 13 22 41 51 49 48
238 193 185 202 213 123 38 47 9 322 288 342 339 336 340 338 346 354 351 334 321 312 315 325 335 346 344 337 339 335 330 314 330 338 340 321 334 12 16 37 69 72 64 66
176 156 202 22 95 145 328 343 66 318 309 310 309 306 306 300 294 290 288 288 293 297 294 305 316 319 325 327 330 329 322 304 312 321 318 309 318 337 322 84 108 93 76 65
202 121 195 263 300 323 295 312 307 306 308 307 304 300 299 293 283 279 278 277 278 283 286 291 299 306 312 316 320 320 314 303 286 292 283 280 296 285 135 129 126 112 95 93
203 198 188 244 279 276 291 303 304 300 301 300 298 297 296 289 282 279 274 272 274 274 276 280 283 292 301 300 308 313 308 302 272 260 239 248 242 243 170 141 133 122 109 104